Terminal Aerodrome Forecast
Issued by NWS Spokane, WA

Home | Current Version | Previous Version | Text Only | Print | Product List | Glossary On
Versions: 1 2 3 4 5 6 7 8 9 10 11 12 13 14 15 16 17 18 19 20 21 22 23 24
000
FTUS46 KOTX 272322
TAFEAT
TAF
KEAT 272322Z 2800/2824 VRB06KT P6SM FEW080
     FM280100 30013G19KT P6SM FEW080 SCT250
     FM280600 30010KT P6SM SCT200
     FM282200 30013G20KT P6SM FEW200=

USA.gov is the U.S. government's official web portal to all federal, state and local government web resources and services.